Location: Jalan Sepang
(2.8072°N, 101.8021°E)
Time: 04:46:53
(UTC+00:00)

Cosmos 1610 Rocket - Pass Details

Date: 15 May 2026
Orbit: 952 x 1001 km, 82.9° (Epoch: 7 June)

Event Time Altitude Azimuth Distance (km) Brightness Sun altitude
Rises 20:45:00 0° 359° (N) 3,658 7.8 -32.7°
Reaches altitude 10° 20:47:29 10° 0° (N) 2,720 7.1 -32.1°
Maximum altitude 20:53:44 80° 87° (E) 1,003 4.5 -30.7°
Enters shadow 20:54:23 71° 146° (SSE) 1,039 4.5 -30.5°
